KD9IXX-13 Weather Reports


time (UTC)temp
C
wind
direction
speed
KPH
gust
KPH
rain 1hr
cm
rain 24hr
cm
rain mn
cm
humidity
%
barometer
mb
20260906121502 21 288 0.0 0.0 0.00 0.00 0.00 99 1020.2
20260906120501 20 299 0.0 0.0 0.00 0.00 0.00 99 1019.9
20260906115502 20 332 0.0 0.0 0.00 0.00 0.00 99 1019.9
20260906114002 20 289 0.0 0.0 0.00 0.00 0.00 99 1019.5
20260906112502 20 291 0.0 0.0 0.00 0.00 0.00 99 1019.4
20260906111502 20 292 0.0 0.0 0.00 0.00 0.00 99 1019.4
20260906111002 20 292 0.0 0.0 0.00 0.00 0.00 99 1019.4
20260906110502 20 290 0.0 0.0 0.00 0.00 0.00 99 1019.1
20260906110002 20 290 0.0 0.0 0.00 0.00 0.00 99 1018.8
20260906104502 20 295 0.0 0.0 0.00 0.00 0.00 99 1018.9
20260906102501 20 291 0.0 0.0 0.00 0.00 0.00 99 1018.8
20260906100002 20 291 0.0 0.0 0.00 0.00 0.00 99 1018.4
20260906095002 20 291 0.0 0.0 0.00 0.00 0.00 99 1018.6
20260906094002 20 285 0.0 0.0 0.00 0.00 0.00 99 1018.7
20260906093501 20 285 0.0 0.0 0.00 0.00 0.00 99 1018.6
20260906092501 20 292 0.0 0.0 0.00 0.00 0.00 99 1018.4
20260906090002 21 305 0.0 0.0 0.00 0.00 0.00 99 1018.4
20260906085502 21 293 0.0 0.0 0.00 0.00 0.00 99 1018.4
20260906084501 21 317 0.0 0.0 0.00 0.00 0.00 98 1018.1
20260906083502 21 304 0.0 0.0 0.00 0.00 0.00 98 1018.6
20260906083002 21 331 0.0 0.0 0.00 0.00 0.00 98 1018.3
20260906082502 21 301 0.0 0.0 0.00 0.00 0.00 97 1018.4
20260906082001 21 295 0.0 0.0 0.00 0.00 0.00 97 1018.5
20260906081502 22 295 0.0 0.0 0.00 0.00 0.00 96 1018.6
20260906075502 22 288 0.0 0.0 0.00 0.00 0.00 95 1018.9
20260906075002 22 298 0.0 0.0 0.00 0.00 0.00 95 1018.5
20260906074002 22 290 0.0 0.0 0.00 0.00 0.00 94 1018.6
20260906071501 22 307 0.0 0.0 0.00 0.00 0.00 95 1018.6
20260906070002 22 298 0.0 0.0 0.00 0.00 0.00 95 1018.5
20260906065502 22 7 0.0 0.0 0.00 0.00 0.00 95 1018.8
20260906064502 22 292 0.0 0.0 0.00 0.00 0.00 96 1018.6
20260906064003 22 305 0.0 4.8 0.00 0.00 0.00 95 1018.6
20260906062502 22 295 0.0 0.0 0.00 0.00 0.00 95 1018.8
20260906061502 22 346 1.6 4.8 0.00 0.00 0.00 94 1018.6
20260906055002 22 355 0.0 0.0 0.00 0.00 0.00 94 1018.4
20260906053502 22 320 1.6 4.8 0.00 0.00 0.00 94 1018.4
20260906051001 22 311 0.0 3.2 0.00 0.00 0.00 94 1018.4
20260906050003 22 305 0.0 0.0 0.00 0.00 0.00 94 1018.1
20260906045002 22 61 6.4 9.7 0.00 0.00 0.00 93 1017.7
20260906044002 22 316 1.6 4.8 0.00 0.00 0.00 93 1017.6
20260906042502 22 329 0.0 6.4 0.00 0.00 0.00 93 1017.9
20260906042002 22 348 1.6 9.7 0.00 0.00 0.00 93 1017.7
20260906041502 22 354 0.0 0.0 0.00 0.00 0.00 93 1017.5
20260906035502 22 4 0.0 6.4 0.00 0.00 0.00 93 1017.6
20260906034001 22 291 0.0 6.4 0.00 0.00 0.00 93 1017.5
20260906033002 22 321 1.6 6.4 0.00 0.00 0.00 93 1017.4
20260906032502 22 324 0.0 4.8 0.00 0.00 0.00 93 1017.7
20260906032002 22 321 0.0 4.8 0.00 0.00 0.00 93 1017.6
20260906031002 22 31 3.2 11.3 0.00 0.00 0.00 93 1017.6
20260906030002 22 347 0.0 3.2 0.00 0.00 0.00 93 1017.3
20260906025002 22 0 0.0 3.2 0.00 0.00 0.00 93 1017.2
20260906022502 22 133 3.2 8.0 0.00 0.00 0.00 92 1017.3
20260906022002 22 48 1.6 3.2 0.00 0.00 0.00 92 1017.5
20260906021002 22 326 3.2 6.4 0.00 0.00 0.00 92 1017.5
20260906015502 22 278 0.0 3.2 0.00 0.00 0.00 92 1017.7
20260906013002 22 56 1.6 4.8 0.00 0.00 0.00 91 1017.5
20260906004502 22 294 0.0 0.0 0.00 0.00 0.00 89 1016.9
20260906004002 23 286 1.6 4.8 0.00 0.00 0.00 89 1016.8
20260906002002 23 284 0.0 8.0 0.00 0.00 0.00 88 1016.6
20260906001002 23 336 3.2 9.7 0.00 0.00 0.00 88 1016.8
20260906000502 23 358 1.6 6.4 0.00 0.00 0.00 87 1016.8
20260906000005 24 359 1.6 14.5 0.00 0.00 0.00 87 1016.8
20260905235002 25 0 0.0 4.8 0.00 0.00 0.00 85 1016.8
20260905234501 25 272 0.0 0.0 0.00 0.00 0.00 85 1016.8
20260905232501 25 64 4.8 8.0 0.00 0.00 0.00 83 1016.6
20260905231502 26 214 4.8 11.3 0.00 0.00 0.00 82 1016.2
20260905225502 26 283 1.6 6.4 0.00 0.00 0.00 81 1016.2
20260905224502 26 309 4.8 14.5 0.00 0.00 0.00 80 1015.9
20260905224002 26 288 3.2 9.7 0.00 0.00 0.00 80 1016.0
20260905223001 26 45 3.2 9.7 0.00 0.00 0.00 82 1016.1
20260905221502 27 286 3.2 8.0 0.00 0.00 0.00 77 1016.1
20260905220502 26 305 4.8 8.0 0.00 0.00 0.00 79 1016.1
20260905215502 26 311 0.0 3.2 0.00 0.00 0.00 82 1016.0
20260905214502 26 279 1.6 4.8 0.00 0.00 0.00 82 1016.1
20260905212502 26 54 1.6 6.4 0.00 0.00 0.00 80 1016.0
20260905210001 27 71 4.8 9.7 0.00 0.00 0.00 78 1015.8
20260905205502 27 295 3.2 8.0 0.00 0.00 0.00 78 1016.0
20260905205002 28 292 3.2 6.4 0.00 0.00 0.00 77 1016.0
20260905204502 28 308 4.8 8.0 0.00 0.00 0.00 78 1016.0
20260905203001 28 59 3.2 9.7 0.00 0.00 0.00 76 1016.1
20260905202502 28 316 3.2 6.4 0.00 0.00 0.00 78 1016.1
20260905202002 28 288 3.2 8.0 0.00 0.00 0.00 77 1016.0
20260905201501 28 306 3.2 11.3 0.00 0.00 0.00 77 1016.0
20260905200003 28 19 3.2 6.4 0.00 0.00 0.00 75 1015.8
20260905194502 29 303 1.6 9.7 0.00 0.00 0.00 76 1015.8
20260905193001 29 19 3.2 9.7 0.00 0.00 0.00 75 1015.9
20260905192502 28 42 4.8 6.4 0.00 0.00 0.00 77 1016.3
20260905191002 30 324 4.8 11.3 0.00 0.00 0.00 75 1016.0
20260905190502 30 333 4.8 6.4 0.00 0.00 0.00 73 1016.3
20260905190001 29 22 1.6 11.3 0.00 0.00 0.00 75 1016.0
20260905184001 30 83 1.6 6.4 0.00 0.00 0.00 75 1016.5
20260905183502 28 50 3.2 8.0 0.00 0.00 0.00 76 1016.2
20260905182501 30 309 3.2 8.0 0.00 0.00 0.00 75 1016.2
20260905181502 29 13 3.2 14.5 0.00 0.00 0.00 76 1016.1
20260905181002 29 52 8.0 11.3 0.00 0.00 0.00 75 1016.1
20260905175002 30 350 3.2 6.4 0.00 0.00 0.00 75 1015.9
20260905174502 30 21 3.2 9.7 0.00 0.00 0.00 74 1016.1
20260905174002 30 292 3.2 8.0 0.00 0.00 0.00 73 1015.7
20260905172501 30 74 6.4 9.7 0.00 0.00 0.00 73 1016.1
20260905170502 30 315 4.8 8.0 0.00 0.00 0.00 72 1015.8
20260905165502 30 74 4.8 8.0 0.00 0.00 0.00 73 1016.2
20260905165001 30 326 3.2 8.0 0.00 0.00 0.00 73 1016.3
20260905164502 30 319 3.2 6.4 0.00 0.00 0.00 74 1016.2
20260905164002 30 295 1.6 6.4 0.00 0.00 0.00 77 1016.4
20260905161503 29 302 1.6 9.7 0.00 0.00 0.00 76 1016.6
20260905161002 30 87 6.4 9.7 0.00 0.00 0.00 75 1016.2
20260905155502 30 297 3.2 8.0 0.00 0.00 0.00 79 1016.3
20260905154002 28 334 3.2 14.5 0.00 0.00 0.00 82 1016.1
20260905151502 28 8 1.6 8.0 0.00 0.00 0.00 83 1016.0
20260905150003 29 336 1.6 4.8 0.00 0.00 0.00 83 1015.6
20260905143502 27 284 0.0 4.8 0.00 0.00 0.00 88 1015.8
20260905143002 27 334 4.8 8.0 0.00 0.00 0.00 88 1015.7
20260905142502 27 340 0.0 3.2 0.00 0.00 0.00 89 1015.7
20260905142001 27 329 3.2 4.8 0.00 0.00 0.00 88 1015.6
20260905140502 27 317 3.2 6.4 0.00 0.00 0.00 89 1015.4
20260905140002 27 318 3.2 6.4 0.00 0.00 0.00 88 1015.3
20260905135502 27 288 1.6 3.2 0.00 0.00 0.00 88 1015.5
20260905133002 27 315 1.6 6.4 0.00 0.00 0.00 89 1015.8
20260905132502 27 315 0.0 0.0 0.00 0.00 0.00 89 1015.8
20260905132002 27 329 1.6 6.4 0.00 0.00 0.00 89 1015.7
20260905124502 26 330 0.0 3.2 0.00 0.00 0.00 98 1014.9
20260905124001 25 291 0.0 0.0 0.00 0.00 0.00 99 1014.9
20260905122502 25 294 0.0 0.0 0.00 0.00 0.00 99 1015.0